�������l�o���
Date,Time,MP-1(��Sv/h),MP-2(��Sv/h),MP-3(��Sv/h),MP-4(��Sv/h),MP-5(��Sv/h),MP-6(��Sv/h),MP-7(��Sv/h),MP-8(��Sv/h),����,����(m/s),���J
2018/06/19,00:00,0.865,1.231,0.847,1.537,1.070,0.474,0.823,0.785,�쓌,2.6,��
2018/06/19,00:10,0.862,1.229,0.847,1.538,1.073,0.474,0.823,0.786,��쓌,3.0,��
2018/06/19,00:20,0.861,1.227,0.846,1.541,1.075,0.474,0.824,0.786,��,3.2,��
2018/06/19,00:30,0.862,1.229,0.847,1.539,1.074,0.476,0.824,0.787,��,3.0,��
2018/06/19,00:40,0.864,1.230,0.850,1.539,1.073,0.475,0.825,0.787,��,2.9,��
2018/06/19,00:50,0.862,1.228,0.849,1.538,1.074,0.476,0.825,0.786,��,2.3,��
2018/06/19,01:00,0.862,1.229,0.848,1.540,1.075,0.474,0.826,0.786,��,2.3,��
2018/06/19,01:10,0.862,1.229,0.848,1.538,1.075,0.475,0.824,0.787,��쓌,2.3,��
2018/06/19,01:20,0.860,1.230,0.849,1.539,1.074,0.475,0.824,0.788,��쓌,1.9,��
2018/06/19,01:30,0.861,1.229,0.844,1.538,1.072,0.474,0.823,0.786,��,1.5,��
2018/06/19,01:40,0.864,1.230,0.848,1.539,1.074,0.474,0.822,0.786,��쓌,1.5,��
2018/06/19,01:50,0.864,1.228,0.846,1.541,1.074,0.475,0.825,0.787,��,1.2,��
2018/06/19,02:00,0.863,1.229,0.848,1.541,1.072,0.474,0.825,0.786,��쓌,1.2,��
2018/06/19,02:10,0.863,1.227,0.848,1.540,1.074,0.475,0.826,0.785,��쓌,0.8,��
2018/06/19,02:20,0.862,1.226,0.848,1.540,1.071,0.474,0.822,0.787,��쓌,1.2,��
2018/06/19,02:30,0.863,1.229,0.848,1.540,1.076,0.476,0.824,0.786,�쓌,0.9,��
2018/06/19,02:40,0.862,1.228,0.847,1.536,1.075,0.475,0.824,0.786,-,CALM,��
2018/06/19,02:50,0.863,1.229,0.850,1.540,1.075,0.474,0.825,0.785,�쓌,0.9,��
2018/06/19,03:00,0.864,1.228,0.849,1.541,1.074,0.473,0.825,0.786,��쓌,0.9,��
2018/06/19,03:10,0.863,1.228,0.847,1.539,1.074,0.474,0.824,0.787,��쐼,0.9,��
2018/06/19,03:20,0.863,1.230,0.849,1.540,1.076,0.474,0.823,0.788,�쓌,0.9,��
2018/06/19,03:30,0.863,1.228,0.848,1.541,1.074,0.475,0.825,0.787,�쓌,1.2,��
2018/06/19,03:40,0.862,1.229,0.850,1.539,1.072,0.475,0.825,0.788,�쓌,1.2,��
2018/06/19,03:50,0.865,1.227,0.849,1.540,1.074,0.475,0.823,0.788,�쓌,1.2,��
2018/06/19,04:00,0.862,1.230,0.848,1.540,1.075,0.474,0.824,0.786,�쓌,0.9,��
2018/06/19,04:10,0.863,1.226,0.847,1.538,1.074,0.474,0.823,0.786,�쓌,0.8,��
2018/06/19,04:20,0.862,1.228,0.849,1.540,1.074,0.473,0.824,0.787,���쓌,0.8,��
2018/06/19,04:30,0.862,1.227,0.849,1.543,1.074,0.474,0.823,0.789,�쓌,1.1,��
2018/06/19,04:40,0.863,1.229,0.850,1.541,1.075,0.475,0.825,0.786,�쓌,1.1,��
2018/06/19,04:50,0.864,1.227,0.847,1.539,1.074,0.474,0.823,0.787,-,CALM,��
2018/06/19,05:00,0.864,1.228,0.850,1.542,1.075,0.472,0.823,0.787,-,CALM,��
2018/06/19,05:10,0.863,1.231,0.849,1.540,1.075,0.475,0.821,0.788,-,CALM,�L
2018/06/19,05:20,0.864,1.230,0.850,1.543,1.074,0.473,0.821,0.787,-,CALM,��
2018/06/19,05:30,0.862,1.229,0.847,1.540,1.074,0.473,0.822,0.787,�k��,0.8,��
2018/06/19,05:40,0.864,1.228,0.848,1.539,1.073,0.472,0.824,0.788,���k��,1.2,��
2018/06/19,05:50,0.864,1.228,0.850,1.540,1.072,0.474,0.823,0.787,���k��,1.5,��
2018/06/19,06:00,0.863,1.229,0.850,1.541,1.070,0.472,0.820,0.788,���k��,1.5,�L
2018/06/19,06:10,0.863,1.228,0.849,1.537,1.070,0.474,0.822,0.786,���k��,2.2,��
2018/06/19,06:20,0.862,1.232,0.851,1.541,1.071,0.472,0.823,0.786,���k��,2.3,��
2018/06/19,06:30,0.863,1.232,0.848,1.544,1.067,0.472,0.822,0.785,���k��,2.5,��
2018/06/19,06:40,0.863,1.228,0.849,1.543,1.069,0.472,0.823,0.787,��,2.0,��
2018/06/19,06:50,0.862,1.227,0.849,1.541,1.071,0.472,0.823,0.786,��,1.7,��
2018/06/19,07:00,0.863,1.229,0.851,1.540,1.069,0.472,0.822,0.785,���k��,1.5,��
2018/06/19,07:10,0.863,1.231,0.851,1.542,1.068,0.472,0.824,0.786,���k��,1.4,��
2018/06/19,07:20,0.863,1.225,0.852,1.543,1.070,0.470,0.824,0.785,�k��,1.2,��
2018/06/19,07:30,0.864,1.228,0.851,1.543,1.067,0.471,0.823,0.787,�k��,1.1,��
2018/06/19,07:40,0.862,1.224,0.849,1.541,1.069,0.471,0.823,0.786,�k�k��,0.8,��
2018/06/19,07:50,0.862,1.228,0.849,1.539,1.066,0.472,0.825,0.785,�k�k��,0.9,��
2018/06/19,08:00,0.862,1.224,0.847,1.542,1.066,0.471,0.825,0.784,�k��,1.1,��
2018/06/19,08:10,0.862,1.228,0.849,1.540,1.067,0.471,0.824,0.785,�k��,1.1,��
2018/06/19,08:20,0.862,1.227,0.848,1.540,1.067,0.471,0.824,0.784,�k��,1.1,��
2018/06/19,08:30,0.862,1.223,0.846,1.539,1.070,0.471,0.823,0.786,�k��,1.5,��
2018/06/19,08:40,0.861,1.224,0.847,1.541,1.071,0.472,0.825,0.785,�k��,1.7,��
2018/06/19,08:50,0.863,1.226,0.847,1.539,1.073,0.473,0.825,0.784,���k��,2.2,��
2018/06/19,09:00,0.861,1.224,0.845,1.539,1.072,0.471,0.824,0.785,�k��,2.0,��
2018/06/19,09:10,0.861,1.225,0.847,1.538,1.074,0.471,0.824,0.784,�k��,2.5,��
2018/06/19,09:20,0.860,1.226,0.846,1.538,1.073,0.470,0.826,0.784,���k��,2.6,��
2018/06/19,09:30,0.862,1.227,0.847,1.538,1.073,0.472,0.824,0.786,�k��,2.9,��
2018/06/19,09:40,0.863,1.229,0.847,1.538,1.074,0.472,0.826,0.785,�k��,3.4,��
2018/06/19,09:50,0.863,1.227,0.847,1.537,1.073,0.473,0.824,0.784,�k��,3.5,��
2018/06/19,10:00,0.862,1.230,0.849,1.537,1.074,0.472,0.824,0.785,�k��,3.0,��
2018/06/19,10:10,0.863,1.228,0.848,1.539,1.075,0.472,0.825,0.786,���k��,3.3,��
2018/06/19,10:20,0.863,1.227,0.849,1.539,1.074,0.472,0.824,0.785,�k��,3.5,��
2018/06/19,10:30,0.865,1.230,0.847,1.538,1.076,0.472,0.827,0.785,�k��,3.5,��
2018/06/19,10:40,0.864,1.229,0.848,1.539,1.076,0.473,0.826,0.786,�k�k��,3.5,��
2018/06/19,10:50,0.866,1.231,0.850,1.539,1.078,0.473,0.827,0.787,�k��,3.3,��
2018/06/19,11:00,0.865,1.231,0.849,1.541,1.077,0.473,0.826,0.785,�k��,3.1,��
2018/06/19,11:10,0.865,1.233,0.852,1.541,1.075,0.472,0.826,0.785,�k��,3.1,��
2018/06/19,11:20,0.866,1.232,0.849,1.541,1.076,0.474,0.827,0.786,�k�k��,2.5,��
2018/06/19,11:30,0.865,1.233,0.848,1.538,1.076,0.475,0.827,0.786,�k��,2.6,��
2018/06/19,11:40,0.867,1.233,0.850,1.541,1.077,0.474,0.827,0.787,�k��,2.6,��
2018/06/19,11:50,0.866,1.231,0.852,1.542,1.078,0.475,0.828,0.786,�k�k��,3.2,��
2018/06/19,12:00,0.865,1.232,0.850,1.541,1.079,0.474,0.827,0.789,�k��,2.9,��
2018/06/19,12:10,0.868,1.232,0.852,1.541,1.081,0.474,0.826,0.788,�k��,3.1,��
2018/06/19,12:20,0.867,1.233,0.852,1.542,1.079,0.474,0.827,0.786,�k��,3.2,��
2018/06/19,12:30,0.865,1.236,0.852,1.544,1.080,0.476,0.827,0.786,�k��,4.0,��
2018/06/19,12:40,0.866,1.232,0.851,1.545,1.080,0.475,0.826,0.786,�k��,4.5,��
2018/06/19,12:50,0.867,1.235,0.852,1.543,1.082,0.475,0.827,0.786,�k�k��,3.6,��
2018/06/19,13:00,0.867,1.234,0.853,1.546,1.081,0.475,0.825,0.786,�k�k��,3.5,��
2018/06/19,13:10,0.869,1.234,0.853,1.544,1.080,0.475,0.826,0.788,���k��,4.2,��
2018/06/19,13:20,0.869,1.237,0.852,1.544,1.081,0.475,0.826,0.784,���k��,3.6,��
2018/06/19,13:30,0.869,1.236,0.853,1.546,1.083,0.474,0.827,0.787,��,3.5,��
2018/06/19,13:40,0.869,1.236,0.853,1.544,1.080,0.473,0.827,0.789,��,3.3,��
2018/06/19,13:50,0.873,1.234,0.852,1.544,1.083,0.474,0.826,0.786,��,2.9,��
2018/06/19,14:00,0.871,1.236,0.854,1.547,1.083,0.474,0.826,0.785,��,3.4,��
2018/06/19,14:10,0.874,1.238,0.852,1.545,1.082,0.476,0.827,0.788,��,2.8,��
2018/06/19,14:20,0.875,1.236,0.852,1.544,1.083,0.475,0.826,0.785,���k��,2.6,��
2018/06/19,14:30,0.872,1.238,0.854,1.546,1.083,0.476,0.827,0.787,��,2.8,��
2018/06/19,14:40,0.874,1.239,0.854,1.546,1.083,0.475,0.828,0.787,���k��,2.2,��
2018/06/19,14:50,0.872,1.237,0.853,1.550,1.081,0.475,0.826,0.786,��,2.3,��
2018/06/19,15:00,0.875,1.240,0.853,1.549,1.084,0.474,0.825,0.787,���k��,2.6,��
2018/06/19,15:10,0.874,1.238,0.855,1.547,1.081,0.476,0.828,0.787,���k��,2.2,��
2018/06/19,15:20,0.875,1.238,0.853,1.548,1.085,0.475,0.828,0.787,���k��,2.6,��
2018/06/19,15:30,0.877,1.240,0.855,1.548,1.085,0.475,0.827,0.788,��,2.0,��
2018/06/19,15:40,0.875,1.239,0.853,1.549,1.083,0.475,0.826,0.786,�k��,1.7,��
2018/06/19,15:50,0.876,1.238,0.854,1.547,1.084,0.474,0.826,0.786,���k��,2.2,��
2018/06/19,16:00,0.874,1.241,0.854,1.547,1.084,0.475,0.827,0.788,���쓌,1.5,��
2018/06/19,16:10,0.872,1.237,0.856,1.549,1.085,0.475,0.826,0.787,�쓌,1.5,��
2018/06/19,16:20,0.873,1.239,0.853,1.550,1.084,0.476,0.827,0.787,���k��,1.9,��
2018/06/19,16:30,0.873,1.240,0.854,1.551,1.085,0.475,0.825,0.788,���k��,1.5,��
2018/06/19,16:40,0.873,1.238,0.856,1.549,1.082,0.475,0.826,0.786,���k��,1.2,��
2018/06/19,16:50,0.873,1.239,0.855,1.546,1.082,0.476,0.826,0.787,�k�k��,1.4,��
2018/06/19,17:00,0.874,1.241,0.855,1.548,1.082,0.475,0.827,0.786,���k��,1.1,��
2018/06/19,17:10,0.873,1.239,0.854,1.549,1.085,0.476,0.828,0.786,-,CALM,��
2018/06/19,17:20,0.874,1.242,0.854,1.548,1.083,0.476,0.826,0.787,���k��,1.7,��
2018/06/19,17:30,0.872,1.243,0.854,1.552,1.082,0.475,0.826,0.787,���k��,1.2,��
2018/06/19,17:40,0.870,1.242,0.857,1.547,1.081,0.475,0.827,0.787,���k��,2.3,��
2018/06/19,17:50,0.872,1.241,0.857,1.551,1.081,0.476,0.826,0.787,��,2.0,��
2018/06/19,18:00,0.871,1.242,0.856,1.551,1.082,0.475,0.828,0.786,���쓌,1.7,��
2018/06/19,18:10,0.873,1.244,0.855,1.553,1.084,0.475,0.825,0.786,���쓌,2.3,��
2018/06/19,18:20,0.873,1.241,0.854,1.556,1.084,0.475,0.826,0.787,���쓌,1.7,��
2018/06/19,18:30,0.873,1.241,0.856,1.552,1.083,0.477,0.825,0.787,���쓌,1.5,��
2018/06/19,18:40,0.872,1.240,0.857,1.553,1.084,0.477,0.826,0.789,��쓌,1.5,��
2018/06/19,18:50,0.873,1.242,0.856,1.551,1.081,0.477,0.826,0.788,��쓌,2.3,��
2018/06/19,19:00,0.872,1.244,0.859,1.551,1.082,0.476,0.827,0.785,��쓌,1.9,��
2018/06/19,19:10,0.877,1.239,0.859,1.553,1.084,0.475,0.826,0.789,��쓌,2.0,��
2018/06/19,19:20,0.874,1.243,0.858,1.551,1.083,0.475,0.825,0.790,�쓌,1.7,��
2018/06/19,19:30,0.875,1.240,0.857,1.554,1.083,0.475,0.827,0.791,��쓌,1.7,��
2018/06/19,19:40,0.877,1.241,0.859,1.553,1.085,0.476,0.827,0.789,��,2.2,��
2018/06/19,19:50,0.876,1.241,0.859,1.551,1.083,0.477,0.827,0.790,��,2.0,��
2018/06/19,20:00,0.873,1.243,0.857,1.553,1.084,0.477,0.829,0.789,��쓌,1.9,��
2018/06/19,20:10,0.875,1.243,0.858,1.556,1.086,0.476,0.827,0.790,��쓌,2.0,��
2018/06/19,20:20,0.875,1.242,0.858,1.551,1.085,0.476,0.827,0.789,��,1.7,��
2018/06/19,20:30,0.877,1.242,0.857,1.552,1.086,0.477,0.828,0.789,��쓌,2.3,��
2018/06/19,20:40,0.876,1.242,0.858,1.553,1.085,0.474,0.828,0.792,��쓌,1.7,��
2018/06/19,20:50,0.876,1.241,0.860,1.552,1.085,0.475,0.828,0.789,�쓌,2.0,��
2018/06/19,21:00,0.875,1.244,0.859,1.553,1.085,0.477,0.827,0.788,��,1.5,��
2018/06/19,21:10,0.875,1.242,0.858,1.554,1.084,0.476,0.827,0.790,��쓌,2.0,��
2018/06/19,21:20,0.874,1.243,0.858,1.554,1.085,0.476,0.829,0.790,��쓌,1.4,��
2018/06/19,21:30,0.873,1.241,0.858,1.551,1.085,0.475,0.826,0.790,��쓌,1.7,��
2018/06/19,21:40,0.875,1.243,0.858,1.552,1.083,0.475,0.828,0.790,��쓌,1.7,��
2018/06/19,21:50,0.876,1.243,0.859,1.552,1.084,0.474,0.828,0.790,��,1.9,��
2018/06/19,22:00,0.875,1.242,0.857,1.550,1.085,0.475,0.828,0.789,�쓌,1.5,��
2018/06/19,22:10,0.873,1.241,0.857,1.553,1.086,0.477,0.827,0.790,��쓌,1.7,��
2018/06/19,22:20,0.875,1.242,0.859,1.551,1.085,0.477,0.826,0.789,��쓌,1.5,��
2018/06/19,22:30,0.873,1.241,0.858,1.553,1.083,0.476,0.827,0.791,��쓌,1.5,��
2018/06/19,22:40,0.873,1.241,0.857,1.553,1.084,0.476,0.826,0.789,��쓌,1.5,��
2018/06/19,22:50,0.877,1.242,0.859,1.552,1.085,0.476,0.827,0.790,��쓌,2.3,��
2018/06/19,23:00,0.875,1.241,0.859,1.553,1.085,0.475,0.830,0.790,��쓌,1.9,��
2018/06/19,23:10,0.873,1.242,0.856,1.549,1.085,0.477,0.827,0.790,�쓌,2.3,��
2018/06/19,23:20,0.874,1.240,0.860,1.549,1.084,0.477,0.825,0.789,�쓌,2.2,��
2018/06/19,23:30,0.874,1.239,0.860,1.550,1.081,0.476,0.827,0.789,��쓌,2.3,��
2018/06/19,23:40,0.873,1.242,0.858,1.552,1.082,0.476,0.826,0.788,��쓌,2.6,��
2018/06/19,23:50,0.874,1.239,0.859,1.552,1.081,0.475,0.830,0.789,��쓌,2.5,��
